Date String (YYYY-MM-DD hh:mm:ss) UTC,Instrument flags,absolute air pressure of the measurement (hPa),sample flow rate (lpm),inlet stack bypass flow (lpm),air temperature of the measurement (°C),ambient temperature measured by the external sensor (°C),aerosol sample conditioner tube jacket temperature (°C),OPC LED temperature (°C),internal box temperature (°C),relative humidity of the measurement (%),span deviation,mass concentration of particles derived from Lorenz-Mie calculation of OPC scattering (μg/m³),mass concentration of particles derived from Lorenz-Mie calculation of OPC scattering (μg/m³),mass concentration of particles derived from Lorenz-Mie calculation of OPC scattering (μg/m³)
DateTimeUTC,F1_M11,P_M11,Q1_M11,Q2_M11,T1_M11,T2_M11,T3_M11,T4_M11,T5_M11,U1_M11,ZSPAN_M11,X0_M11,X2_M11,X1_M11
2023-09-15 23:00:00,SystemResetWarning,0836.3,5.00,000.00,028.4,027.3,000.0,036.6,030.1,23.7,0000.0,0007.96,0004.40,0003.89
2023-09-15 23:01:00,SystemResetWarning,0836.2,5.00,000.00,028.4,027.2,000.0,036.6,030.1,23.7,0000.0,0007.96,0004.42,0003.89
2023-09-15 23:02:00,SystemResetWarning,0836.2,4.99,000.00,028.4,025.8,000.0,036.5,029.7,23.2,0000.0,0007.98,0004.44,0003.90
2023-09-15 23:03:00,SystemResetWarning,0836.2,5.01,000.00,028.2,024.6,000.0,036.5,029.5,23.2,0000.0,0007.87,0004.40,0003.89
2023-09-15 23:04:00,SystemResetWarning,0836.2,5.02,000.00,028.1,024.6,000.0,036.5,029.4,23.5,0000.0,0007.93,0004.41,0003.88
2023-09-15 23:05:00,SystemResetWarning,0836.2,5.00,000.00,028.1,024.9,000.0,036.5,029.4,23.6,0000.0,0007.99,0004.42,0003.88
2023-09-15 23:06:00,SystemResetWarning,0836.2,4.99,000.00,028.0,025.2,000.0,036.5,029.4,23.9,0000.0,0008.76,0004.42,0003.88
2023-09-15 23:07:00,SystemResetWarning,0836.2,5.00,000.00,028.0,025.6,000.0,036.4,029.5,24.3,0000.0,0008.69,0004.43,0003.87
2023-09-15 23:08:00,SystemResetWarning,0836.2,5.01,000.00,028.0,025.9,000.0,036.4,029.6,24.4,0000.0,0008.39,0004.44,0003.87
2023-09-15 23:09:00,SystemResetWarning,0836.1,5.01,000.00,028.1,026.1,000.0,036.4,029.7,24.8,0000.0,0008.26,0004.41,0003.85
2023-09-15 23:10:00,SystemResetWarning,0836.2,5.00,000.00,028.1,026.4,000.0,036.4,029.7,24.9,0000.0,0008.31,0004.37,0003.84
2023-09-15 23:11:00,SystemResetWarning,0836.2,4.99,000.00,028.1,026.6,000.0,036.4,029.8,24.1,0000.0,0008.44,0004.35,0003.83
2023-09-15 23:12:00,SystemResetWarning,0836.2,5.00,000.00,028.1,026.7,000.0,036.4,029.8,24.0,0000.0,0008.39,0004.32,0003.83
2023-09-15 23:13:00,SystemResetWarning,0836.2,4.99,000.00,028.2,026.9,000.0,036.4,029.9,24.5,0000.0,0008.42,0004.31,0003.81
2023-09-15 23:14:00,SystemResetWarning,0836.2,4.99,000.00,028.2,027.0,000.0,036.4,029.9,25.0,0000.0,0008.46,0004.34,0003.82
2023-09-15 23:15:00,SystemResetWarning,0836.2,5.00,000.00,028.2,027.1,000.0,036.5,030.0,24.3,0000.0,0008.40,0004.32,0003.82
2023-09-15 23:16:00,SystemResetWarning,0836.2,5.00,000.00,028.3,027.1,000.0,036.5,030.0,23.6,0000.0,0008.35,0004.29,0003.82
2023-09-15 23:17:00,SystemResetWarning,0836.2,5.01,000.00,028.3,027.2,000.0,036.5,030.1,23.7,0000.0,0008.27,0004.30,0003.82
2023-09-15 23:18:00,SystemResetWarning,0836.2,5.01,000.00,028.4,027.3,000.0,036.5,030.1,24.1,0000.0,0008.17,0004.32,0003.83
2023-09-15 23:19:00,SystemResetWarning,0836.2,4.99,000.00,028.4,027.3,000.0,036.6,030.1,23.8,0000.0,0008.08,0004.29,0003.82
2023-09-15 23:20:00,SystemResetWarning,0836.2,4.99,000.00,028.4,026.9,000.0,036.6,030.0,23.9,0000.0,0008.13,0004.31,0003.83
2023-09-15 23:21:00,SystemResetWarning,0836.2,5.00,000.00,028.3,025.3,000.0,036.5,029.5,24.0,0000.0,0008.38,0004.35,0003.85
2023-09-15 23:22:00,SystemResetWarning,0836.2,5.01,000.00,028.2,024.6,000.0,036.5,029.4,24.2,0000.0,0008.73,0004.33,0003.85
2023-09-15 23:23:00,SystemResetWarning,0836.2,5.01,000.00,028.1,024.7,000.0,036.5,029.4,23.9,0000.0,0008.83,0004.35,0003.86
2023-09-15 23:24:00,SystemResetWarning,0836.2,5.00,000.00,028.0,025.0,000.0,036.5,029.4,23.9,0000.0,0008.89,0004.36,0003.86
2023-09-15 23:25:00,SystemResetWarning,0836.2,5.00,000.00,028.0,025.3,000.0,036.5,029.5,24.2,0000.0,0008.90,0004.35,0003.84
2023-09-15 23:26:00,SystemResetWarning,0836.2,5.00,000.00,028.0,025.6,000.0,036.4,029.6,24.6,0000.0,0009.00,0004.38,0003.84
2023-09-15 23:27:00,SystemResetWarning,0836.2,5.00,000.00,028.0,025.9,000.0,036.4,029.6,25.1,0000.0,0009.01,0004.40,0003.86
2023-09-15 23:28:00,SystemResetWarning,0836.2,5.00,000.00,028.1,026.2,000.0,036.4,029.7,24.6,0000.0,0008.42,0004.39,0003.85
2023-09-15 23:29:00,SystemResetWarning,0836.2,5.00,000.00,028.1,026.4,000.0,036.4,029.7,24.5,0000.0,0008.29,0004.36,0003.85
2023-09-15 23:30:00,SystemResetWarning,0836.2,5.00,000.00,028.1,026.5,000.0,036.4,029.8,24.0,0000.0,0008.34,0004.37,0003.85
2023-09-15 23:31:00,SystemResetWarning,0836.2,5.00,000.00,028.1,026.7,000.0,036.4,029.8,24.1,0000.0,0008.36,0004.37,0003.85
2023-09-15 23:32:00,SystemResetWarning,0836.2,5.00,000.00,028.2,026.8,000.0,036.4,029.8,24.0,0000.0,0008.09,0004.33,0003.84
2023-09-15 23:33:00,SystemResetWarning,0836.2,5.00,000.00,028.2,026.9,000.0,036.5,029.9,24.3,0000.0,0007.65,0004.32,0003.84
2023-09-15 23:34:00,SystemResetWarning,0836.2,5.00,000.00,028.2,026.9,000.0,036.5,029.9,24.3,0000.0,0007.45,0004.31,0003.83
2023-09-15 23:35:00,SystemResetWarning,0836.2,5.01,000.00,028.2,027.0,000.0,036.5,030.0,24.2,0000.0,0007.41,0004.33,0003.84
2023-09-15 23:36:00,SystemResetWarning,0836.2,5.00,000.00,028.3,027.1,000.0,036.5,030.0,24.3,0000.0,0007.42,0004.33,0003.85
2023-09-15 23:37:00,SystemResetWarning,0836.2,5.00,000.00,028.3,027.1,000.0,036.5,030.0,23.7,0000.0,0007.64,0004.32,0003.84
2023-09-15 23:38:00,SystemResetWarning,0836.2,4.99,000.00,028.3,027.2,000.0,036.5,030.0,24.1,0000.0,0007.51,0004.28,0003.83
2023-09-15 23:39:00,SystemResetWarning,0836.2,4.99,000.00,028.4,027.2,000.0,036.6,030.1,24.0,0000.0,0007.81,0004.30,0003.83
2023-09-15 23:40:00,SystemResetWarning,0836.2,5.00,000.00,028.4,027.2,000.0,036.6,030.1,23.8,0000.0,0007.91,0004.32,0003.83
2023-09-15 23:41:00,SystemResetWarning,0836.2,5.01,000.00,028.4,027.1,000.0,036.6,030.1,23.4,0000.0,0008.53,0004.36,0003.84
2023-09-15 23:42:00,SystemResetWarning,0836.1,4.99,000.00,028.4,025.7,000.0,036.6,029.7,23.3,0000.0,0008.48,0004.33,0003.84
2023-09-15 23:43:00,SystemResetWarning,0836.1,5.00,000.00,028.2,024.6,000.0,036.5,029.4,23.2,0000.0,0008.49,0004.36,0003.84
2023-09-15 23:44:00,SystemResetWarning,0836.1,5.02,000.00,028.1,024.5,000.0,036.5,029.4,23.6,0000.0,0008.50,0004.36,0003.84
2023-09-15 23:45:00,SystemResetWarning,0836.1,4.99,000.00,028.1,024.8,000.0,036.5,029.4,24.6,0000.0,0008.44,0004.35,0003.84
2023-09-15 23:46:00,SystemResetWarning,0836.1,4.99,000.00,028.0,025.1,000.0,036.5,029.5,24.7,0000.2,0008.44,0004.33,0003.83
2023-09-15 23:47:00,SystemResetWarning,0836.1,5.01,000.00,028.0,025.5,000.0,036.5,029.5,24.9,0000.1,0008.65,0004.33,0003.83
2023-09-15 23:48:00,SystemResetWarning,0836.1,5.01,000.00,028.0,025.8,000.0,036.4,029.6,25.1,0000.4,0008.95,0004.33,0003.83
2023-09-15 23:49:00,SystemResetWarning,0836.1,4.99,000.00,028.0,026.0,000.0,036.4,029.6,24.8,0001.1,0009.07,0004.32,0003.84
2023-09-15 23:50:00,SystemResetWarning,0836.1,4.99,000.00,028.0,026.2,000.0,036.4,029.7,25.1,0001.1,0009.15,0004.34,0003.85
2023-09-15 23:51:00,SystemResetWarning,0836.1,5.00,000.00,028.1,026.4,000.0,036.4,029.7,24.8,0000.0,0008.96,0004.32,0003.86
2023-09-15 23:52:00,SystemResetWarning,0836.1,5.00,000.00,028.1,026.6,000.0,036.4,029.8,24.6,0000.0,0008.76,0004.34,0003.85
2023-09-15 23:53:00,SystemResetWarning,0836.1,5.00,000.00,028.1,026.7,000.0,036.4,029.8,24.8,0000.0,0008.64,0004.35,0003.86
2023-09-15 23:54:00,SystemResetWarning,0836.1,5.00,000.00,028.2,026.8,000.0,036.4,029.9,24.8,0000.4,0008.71,0004.37,0003.87
2023-09-15 23:55:00,SystemResetWarning,0836.1,5.00,000.00,028.2,026.9,000.0,036.4,029.9,25.1,0002.1,0008.82,0004.37,0003.88
2023-09-15 23:56:00,SystemResetWarning,0836.2,5.00,000.00,028.2,026.9,000.0,036.5,029.9,25.3,0001.7,0008.84,0004.40,0003.89
2023-09-15 23:57:00,SystemResetWarning,0836.2,5.01,000.00,028.2,027.0,000.0,036.5,030.0,24.6,0000.0,0009.01,0004.42,0003.90
2023-09-15 23:58:00,SystemResetWarning,0836.2,4.99,000.00,028.3,027.1,000.0,036.5,030.0,24.4,0000.0,0009.15,0004.46,0003.91
2023-09-15 23:59:00,SystemResetWarning,0836.2,4.99,000.00,028.3,027.1,000.0,036.5,030.0,24.2,0000.0,0008.71,0004.48,0003.92
